Pomona, MO

1:59 AM CST on January 19, 2017 (GMT -0600)
West Plains Municipal

Weather History for KUNO - February, 2014

Change the Weather History Date:

Sunday, February 23, 2014

  Actual Average Record
Temperature  
Mean Temperature 40 °F 40 °F  
Max Temperature 50 °F 52 °F 82 °F (1982)
Min Temperature 29 °F 28 °F 6 °F (1989)
Degree Days  
Heating Degree Days 25 25  
Month to date heating degree days 767 640  
Since 1 July heating degree days 3627 3344  
Cooling Degree Days 0 0  
Month to date cooling degree days 0 0  
Year to date cooling degree days 0 0  
Moisture  
Dew Point 24 °F    
Average Humidity 59    
Maximum Humidity 89    
Minimum Humidity 28    
Precipitation  
Precipitation 0.00 in 0.11 in 2.06 in (1985)
Month to date precipitation 0.25 2.33  
Year to date precipitation 1.85 5.05  
Sea Level Pressure  
Sea Level Pressure 30.11 in    
Wind  
Wind Speed 12 mph (NE)    
Max Wind Speed 23 mph    
Max Gust Speed 29 mph    
Visibility 10 miles    
Events      
T = Trace of Precipitation, MM = Missing Value Source: NWS Daily Summary

Daily Weather History Graph

Daily Weather History Graph

Search for Another Location

Airport or City:

Trip Planner

Search our weather history database for the weather conditions in past years. The results will help you decide how hot, cold, wet, or windy it might be!

Date:

Astronomy

Feb. 23, 2014 Rise Set
Actual Time 6:46 AM CST 5:56 PM CST
Civil Twilight 6:20 AM CST 6:22 PM CST
Nautical Twilight 5:49 AM CST 6:52 PM CST
Astronomical Twilight 5:19 AM CST 7:22 PM CST
Moon 1:40 AM CST (2/23) 12:03 PM CST (2/23)
Length of Visible Light 12h 02m
Length of Day
11h 09m
Last Quarter, 38% of the Moon is Illuminated
Feb 23
Last Quarter
Mar 1
New
Mar 8
First Quarter
Mar 16
Full
Mar 23
Last Quarter

Hourly Weather History & Observations

Time (CST) Temp. Windchill Dew Point Humidity Pressure Visibility Wind Dir Wind Speed Gust Speed Precip Events Conditions
12:53 AM 39.0 °F 34.0 °F 26.1 °F 60% 29.93 in 10.0 mi NNE 6.9 mph - N/A   Clear
1:53 AM 39.0 °F 33.4 °F 28.9 °F 67% 29.92 in 10.0 mi NE 8.1 mph - N/A   Clear
2:53 AM 37.0 °F 32.4 °F 30.0 °F 76% 29.92 in 10.0 mi NE 5.8 mph - N/A   Clear
3:53 AM 37.0 °F 30.4 °F 30.9 °F 79% 29.94 in 10.0 mi NNE 9.2 mph - N/A   Clear
4:53 AM 36.0 °F 27.1 °F 30.9 °F 82% 29.98 in 10.0 mi NNE 13.8 mph - N/A   Clear
5:53 AM 35.1 °F 24.5 °F 30.9 °F 85% 30.01 in 10.0 mi NNE 18.4 mph 25.3 mph N/A   Partly Cloudy
6:12 AM 36.0 °F 25.0 °F 30.9 °F 82% 30.01 in 10.0 mi NNE 20.7 mph 26.5 mph N/A   Mostly Cloudy
6:53 AM 37.0 °F 27.0 °F 32.0 °F 82% 30.04 in 10.0 mi NE 18.4 mph 24.2 mph N/A   Overcast
7:20 AM 36.0 °F 26.3 °F 33.1 °F 89% 30.07 in 6.0 mi NNE 16.1 mph 25.3 mph N/A   Overcast
7:53 AM 34.0 °F 23.0 °F 30.9 °F 89% 30.09 in 4.0 mi NNE 18.4 mph 23.0 mph N/A   Overcast
8:27 AM 33.1 °F 22.6 °F 28.0 °F 82% 30.10 in 7.0 mi NNE 16.1 mph 23.0 mph N/A   Overcast
8:53 AM 35.1 °F 25.2 °F 28.0 °F 76% 30.11 in 10.0 mi NE 16.1 mph - N/A   Overcast
9:05 AM 36.0 °F 27.1 °F 28.9 °F 76% 30.10 in 10.0 mi NE 13.8 mph - N/A   Mostly Cloudy
9:18 AM 39.0 °F 29.9 °F 28.9 °F 67% 30.10 in 10.0 mi NE 17.3 mph 24.2 mph N/A   Scattered Clouds
9:53 AM 37.9 °F 28.5 °F 28.9 °F 70% 30.12 in 10.0 mi NE 17.3 mph 24.2 mph N/A   Overcast
10:00 AM 37.9 °F 29.6 °F 28.9 °F 70% 30.11 in 10.0 mi NE 13.8 mph - N/A   Overcast
10:19 AM 39.0 °F 31.8 °F 28.0 °F 65% 30.12 in 10.0 mi NE 11.5 mph - N/A   Overcast
10:53 AM 39.9 °F 31.1 °F 27.0 °F 60% 30.14 in 10.0 mi NNE 17.3 mph - N/A   Overcast
11:53 AM 42.1 °F 34.5 °F 24.1 °F 49% 30.13 in 10.0 mi NNE 15.0 mph - N/A   Overcast
12:53 PM 46.0 °F 39.6 °F 21.9 °F 39% 30.12 in 10.0 mi NNE 15.0 mph - N/A   Mostly Cloudy
1:53 PM 46.9 °F - 19.0 °F 33% 30.11 in 10.0 mi NE 11.5 mph - N/A   Scattered Clouds
2:53 PM 48.9 °F - 19.0 °F 31% 30.12 in 10.0 mi NNE 12.7 mph 21.9 mph N/A   Clear
3:53 PM 48.9 °F - 18.0 °F 29% 30.13 in 10.0 mi NE 10.4 mph - N/A   Clear
4:53 PM 46.9 °F - 15.1 °F 28% 30.16 in 10.0 mi NNE 12.7 mph - N/A   Clear
5:53 PM 41.0 °F 34.7 °F 12.9 °F 32% 30.19 in 10.0 mi North 10.4 mph - N/A   Clear
6:53 PM 37.9 °F 32.1 °F 14.0 °F 38% 30.22 in 10.0 mi NNE 8.1 mph - N/A   Clear
7:53 PM 35.1 °F 28.6 °F 17.1 °F 48% 30.24 in 10.0 mi NNE 8.1 mph - N/A   Clear
8:53 PM 34.0 °F 26.0 °F 16.0 °F 48% 30.26 in 10.0 mi NNE 10.4 mph - N/A   Clear
9:53 PM 32.0 °F 23.0 °F 15.1 °F 50% 30.29 in 10.0 mi NNE 11.5 mph - N/A   Clear
10:53 PM 30.9 °F 22.2 °F 12.9 °F 47% 30.28 in 10.0 mi NE 10.4 mph - N/A   Clear
11:53 PM 28.9 °F 19.8 °F 12.9 °F 51% 30.28 in 10.0 mi NE 10.4 mph - N/A   Clear